Weather History for KGUC - August, 2013

Change the Weather History Date:

Friday, August 2, 2013

  Actual Average (WUND) Record (WUND)
Temperature  
Mean Temperature 64 °F -  
Max Temperature 78 °F - - (-1)
Min Temperature 51 °F - - (-1)
Growing Degree Days 14 (Base 50)    
Moisture  
Dew Point 47 °F    
Average Humidity 59    
Maximum Humidity 88    
Minimum Humidity 27    
Precipitation  
Precipitation 0.06 in - - ()
Sea Level Pressure  
Sea Level Pressure 30.35 in    
Wind  
Wind Speed 4 mph (NW)    
Max Wind Speed 15 mph    
Max Gust Speed 16 mph    
Visibility 10 miles    
Events      
Averages and records for this station are not official NWS values.
T = Trace of Precipitation, MM = Missing Value Source: NWS Daily Summary

Daily Weather History Graph

Daily Weather History Graph

Search for Another Location

Airport or City:

Trip Planner

Search our weather history database for the weather conditions in past years. The results will help you decide how hot, cold, wet, or windy it might be!

Date:

Astronomy

Aug. 02, 2013 Rise Set
Actual Time 6:10 AM MDT 8:16 PM MDT
Civil Twilight 5:41 AM MDT 8:45 PM MDT
Nautical Twilight 5:05 AM MDT 9:21 PM MDT
Astronomical Twilight 4:26 AM MDT 10:00 PM MDT
Moon 2:34 AM MDT (8/2) 5:16 PM MDT (8/2)
Length of Visible Light 15h 04m
Length of Day
14h 06m
Waning Crescent, 15% of the Moon is Illuminated
Aug 2
Waning Crescent
Aug 6
New
Aug 14
First Quarter
Aug 20
Full
Aug 28
Last Quarter

Hourly Weather History & Observations

Time (MDT) Temp. Dew Point Humidity Pressure Visibility Wind Dir Wind Speed Gust Speed Precip Events Conditions
12:15 AM 53.6 °F 48.2 °F 82% 30.37 in 10.0 mi North 6.9 mph - N/A   Partly Cloudy
12:35 AM 53.6 °F 48.2 °F 82% 30.37 in 10.0 mi North 6.9 mph - N/A   Clear
12:55 AM 53.6 °F 48.2 °F 82% 30.37 in 10.0 mi Calm Calm - N/A   Clear
1:15 AM 53.6 °F 48.2 °F 82% 30.37 in 10.0 mi NE 3.5 mph - N/A   Clear
1:55 AM 53.6 °F 48.2 °F 82% 30.39 in 9.0 mi Calm Calm - 0.02 in   Overcast
2:15 AM 53.6 °F 48.2 °F 82% 30.39 in 10.0 mi West 4.6 mph - 0.02 in   Mostly Cloudy
2:35 AM 53.6 °F 48.2 °F 82% 30.39 in 10.0 mi SSW 5.8 mph - 0.03 in   Overcast
2:55 AM 53.6 °F 48.2 °F 82% 30.38 in 10.0 mi Calm Calm - 0.03 in   Overcast
3:15 AM 55.4 °F 50.0 °F 82% 30.37 in 10.0 mi WSW 6.9 mph - 0.01 in   Mostly Cloudy
3:35 AM 53.6 °F 48.2 °F 82% 30.36 in 10.0 mi WSW 6.9 mph - 0.01 in   Scattered Clouds
3:55 AM 53.6 °F 48.2 °F 82% 30.36 in 10.0 mi West 4.6 mph - 0.01 in   Scattered Clouds
4:15 AM 55.4 °F 48.2 °F 77% 30.37 in 10.0 mi Calm Calm - N/A   Scattered Clouds
4:35 AM 55.4 °F 48.2 °F 77% 30.35 in 10.0 mi SE 3.5 mph - N/A   Overcast
4:55 AM 55.4 °F 48.2 °F 77% 30.35 in 10.0 mi West 8.1 mph - N/A   Overcast
5:15 AM 53.6 °F 46.4 °F 77% 30.35 in 10.0 mi WSW 6.9 mph - N/A   Mostly Cloudy
5:35 AM 55.4 °F 48.2 °F 77% 30.36 in 10.0 mi NW 5.8 mph - N/A   Mostly Cloudy
5:55 AM 53.6 °F 48.2 °F 82% 30.36 in 10.0 mi Calm Calm - N/A   Mostly Cloudy
6:15 AM 51.8 °F 46.4 °F 82% 30.37 in 10.0 mi Calm Calm - N/A   Partly Cloudy
6:35 AM 51.8 °F 46.4 °F 82% 30.37 in 10.0 mi Calm Calm - N/A   Clear
6:55 AM 51.8 °F 48.2 °F 88% 30.38 in 10.0 mi Calm Calm - N/A   Clear
7:15 AM 53.6 °F 48.2 °F 82% 30.38 in 10.0 mi NW 3.5 mph - N/A   Clear
7:35 AM 53.6 °F 48.2 °F 82% 30.38 in 10.0 mi Calm Calm - N/A   Clear
7:55 AM 55.4 °F 48.2 °F 77% 30.39 in 10.0 mi Calm Calm - N/A   Clear
8:15 AM 55.4 °F 48.2 °F 77% 30.39 in 10.0 mi Calm Calm - N/A   Clear
8:35 AM 57.2 °F 48.2 °F 72% 30.39 in 10.0 mi Calm Calm - N/A   Clear
9:15 AM 59.0 °F 50.0 °F 72% 30.40 in 10.0 mi SW 4.6 mph - N/A   Partly Cloudy
9:35 AM 60.8 °F 50.0 °F 68% 30.40 in 10.0 mi North 3.5 mph - N/A   Clear
10:15 AM 62.6 °F 50.0 °F 63% 30.40 in 10.0 mi Calm Calm - N/A   Clear
10:35 AM 64.4 °F 50.0 °F 59% 30.39 in 10.0 mi Calm Calm - N/A   Clear
10:55 AM 64.4 °F 48.2 °F 56% 30.39 in 10.0 mi Calm Calm - N/A   Clear
11:15 AM 66.2 °F 50.0 °F 56% 30.39 in 10.0 mi South 3.5 mph - N/A   Clear
11:35 AM 66.2 °F 48.2 °F 52% 30.38 in 10.0 mi SW 4.6 mph - N/A   Clear
11:55 AM 68.0 °F 50.0 °F 52% 30.38 in 10.0 mi SSW 4.6 mph - N/A   Clear
12:35 PM 69.8 °F 51.8 °F 53% 30.37 in 10.0 mi WSW 6.9 mph - N/A   Clear
1:15 PM 71.6 °F 51.8 °F 50% 30.35 in 10.0 mi West 3.5 mph - N/A   Clear
1:35 PM 73.4 °F 51.8 °F 47% 30.34 in 10.0 mi South 3.5 mph - N/A   Clear
1:55 PM 73.4 °F 51.8 °F 47% 30.34 in 10.0 mi ESE 3.5 mph - N/A   Scattered Clouds
2:15 PM 75.2 °F 50.0 °F 41% 30.33 in 10.0 mi NE 5.8 mph - N/A   Mostly Cloudy
2:55 PM 75.2 °F 46.4 °F 36% 30.32 in 10.0 mi North 6.9 mph - N/A   Scattered Clouds
3:15 PM 75.2 °F 44.6 °F 34% 30.32 in 10.0 mi South 5.8 mph - N/A   Mostly Cloudy
3:35 PM 75.2 °F 44.6 °F 34% 30.31 in 10.0 mi North 8.1 mph - N/A   Scattered Clouds
3:55 PM 75.2 °F 44.6 °F 34% 30.30 in 10.0 mi North 6.9 mph - N/A   Partly Cloudy
4:15 PM 75.2 °F 39.2 °F 27% 30.30 in 10.0 mi North 10.4 mph 16.1 mph N/A   Scattered Clouds
4:35 PM 78.8 °F 42.8 °F 28% 30.29 in 10.0 mi North 15.0 mph - N/A   Mostly Cloudy
4:55 PM 77.0 °F 42.8 °F 29% 30.28 in 10.0 mi NNE 13.8 mph - N/A   Partly Cloudy
5:15 PM 77.0 °F 41.0 °F 28% 30.28 in 10.0 mi North 13.8 mph - N/A   Scattered Clouds
5:35 PM 77.0 °F 42.8 °F 29% 30.28 in 10.0 mi North 12.7 mph 16.1 mph N/A   Partly Cloudy
5:55 PM 75.2 °F 42.8 °F 31% 30.28 in 10.0 mi North 8.1 mph - N/A   Clear
6:15 PM 75.2 °F 42.8 °F 31% 30.28 in 10.0 mi North 12.7 mph 16.1 mph N/A   Clear
6:35 PM 75.2 °F 42.8 °F 31% 30.29 in 10.0 mi North 10.4 mph - N/A   Clear
7:15 PM 73.4 °F 39.2 °F 29% 30.30 in 10.0 mi NNW 4.6 mph - N/A   Clear
7:35 PM 71.6 °F 42.8 °F 35% 30.30 in 10.0 mi NE 4.6 mph - N/A   Clear
7:55 PM 69.8 °F 44.6 °F 40% 30.31 in 10.0 mi SSE 3.5 mph - N/A   Clear
8:15 PM 69.8 °F 44.6 °F 40% 30.31 in 10.0 mi Calm Calm - N/A   Clear
8:55 PM 68.0 °F 44.6 °F 43% 30.32 in 10.0 mi Calm Calm - N/A   Clear
9:15 PM 68.0 °F 46.4 °F 46% 30.33 in 10.0 mi Calm Calm - N/A   Clear
9:35 PM 66.2 °F 46.4 °F 49% 30.34 in 10.0 mi Calm Calm - N/A   Clear
9:55 PM 66.2 °F 44.6 °F 46% 30.35 in 10.0 mi Calm Calm - N/A   Clear
10:35 PM 62.6 °F 46.4 °F 55% 30.36 in 10.0 mi West 3.5 mph - N/A   Clear
10:55 PM 62.6 °F 46.4 °F 55% 30.36 in 10.0 mi WSW 6.9 mph - N/A   Clear
11:15 PM 64.4 °F 46.4 °F 52% 30.36 in 10.0 mi SW 5.8 mph - N/A   Clear